NKS52T MDPC-KFLL

Flight info

Callsign NKS52T
Flight time N/A
Altitude 34000
Route MALVN2T MALVN DCT RUMFO DCT ZQA OLAHS3
Aircraft A321/M-SDE3FGHIRWY/LB1

Departure

Time N/A
Airport Punta Cana International Airport (MDPC)

Arrival

Time 2026-05-03 21:37
Airport Fort Lauderdale Hollywood International Airport (KFLL)
Time Latitude Longitude Altitude Speed Heading
2026-05-03 20:15 21.57212 -72.96208 34051 ft 440 kts 306°
2026-05-03 20:15 21.60973 -73.01385 34049 ft 439 kts 306°
2026-05-03 20:16 21.64730 -73.06560 34043 ft 439 kts 306°
2026-05-03 20:16 21.68478 -73.11737 34043 ft 439 kts 306°
2026-05-03 20:17 21.72217 -73.16914 34042 ft 438 kts 306°
2026-05-03 20:17 21.75962 -73.22092 34041 ft 438 kts 306°
2026-05-03 20:18 21.79705 -73.27274 34047 ft 438 kts 306°
2026-05-03 20:18 21.83440 -73.32462 34046 ft 438 kts 306°
2026-05-03 20:19 21.87171 -73.37643 34045 ft 439 kts 306°
2026-05-03 20:19 21.90923 -73.42860 34014 ft 442 kts 306°
2026-05-03 20:20 21.94706 -73.48114 34022 ft 445 kts 305°
2026-05-03 20:20 21.98503 -73.53393 34015 ft 446 kts 305°
2026-05-03 20:21 22.02310 -73.58688 34027 ft 447 kts 305°
2026-05-03 20:21 22.06113 -73.63999 34027 ft 448 kts 305°
2026-05-03 20:22 22.09925 -73.69312 34039 ft 448 kts 305°
2026-05-03 20:22 22.13732 -73.74630 34045 ft 448 kts 305°
2026-05-03 20:23 22.17536 -73.79944 34051 ft 448 kts 305°
2026-05-03 20:23 22.21340 -73.85268 34052 ft 448 kts 305°
2026-05-03 20:24 22.25137 -73.90597 34051 ft 448 kts 305°
2026-05-03 20:24 22.28914 -73.95888 34052 ft 448 kts 305°
2026-05-03 20:25 22.32714 -74.01213 34066 ft 447 kts 304°
2026-05-03 20:25 22.36496 -74.06540 34059 ft 446 kts 304°
2026-05-03 20:26 22.40264 -74.11856 34054 ft 446 kts 304°
2026-05-03 20:26 22.44037 -74.17169 34055 ft 445 kts 304°
2026-05-03 20:27 22.47810 -74.22480 34056 ft 445 kts 304°
2026-05-03 20:27 22.51577 -74.27793 34055 ft 445 kts 304°
2026-05-03 20:28 22.55344 -74.33107 34055 ft 445 kts 304°
2026-05-03 20:28 22.59104 -74.38424 34062 ft 445 kts 304°
2026-05-03 20:29 22.62850 -74.43736 34060 ft 444 kts 304°
2026-05-03 20:29 22.66596 -74.49047 34071 ft 444 kts 304°
2026-05-03 20:30 22.70341 -74.54352 34062 ft 443 kts 304°
2026-05-03 20:30 22.74074 -74.59653 34059 ft 442 kts 304°
2026-05-03 20:31 22.77779 -74.64914 34053 ft 442 kts 304°
2026-05-03 20:31 22.81511 -74.70205 34055 ft 442 kts 304°
2026-05-03 20:32 22.85233 -74.75495 34056 ft 441 kts 304°
2026-05-03 20:32 22.88942 -74.80802 34052 ft 441 kts 304°
2026-05-03 20:33 22.92659 -74.86105 34050 ft 441 kts 304°
2026-05-03 20:33 22.96371 -74.91412 34052 ft 441 kts 304°
2026-05-03 20:34 23.00079 -74.96723 34058 ft 441 kts 304°
2026-05-03 20:34 23.03794 -75.02028 34078 ft 441 kts 303°
2026-05-03 20:35 23.07499 -75.07329 34066 ft 440 kts 303°
2026-05-03 20:35 23.11461 -75.12395 34064 ft 441 kts 308°
2026-05-03 20:36 23.15598 -75.17309 34052 ft 440 kts 308°
2026-05-03 20:36 23.19733 -75.22213 34053 ft 440 kts 308°
2026-05-03 20:37 23.23864 -75.27115 34057 ft 439 kts 308°
2026-05-03 20:37 23.27979 -75.32020 34051 ft 439 kts 308°
2026-05-03 20:38 23.32089 -75.36933 34052 ft 439 kts 308°
2026-05-03 20:38 23.36194 -75.41833 34032 ft 438 kts 308°
2026-05-03 20:39 23.40294 -75.46729 34028 ft 437 kts 307°
2026-05-03 20:39 23.44363 -75.51595 34032 ft 437 kts 307°
2026-05-03 20:40 23.48481 -75.56513 34029 ft 437 kts 307°
2026-05-03 20:40 23.52573 -75.61408 34033 ft 437 kts 307°
2026-05-03 20:41 23.56636 -75.66286 34041 ft 437 kts 307°
2026-05-03 20:41 23.60723 -75.71203 34043 ft 438 kts 307°
2026-05-03 20:42 23.64810 -75.76124 34045 ft 438 kts 307°
2026-05-03 20:42 23.68905 -75.81044 34048 ft 438 kts 307°
2026-05-03 20:43 23.72997 -75.85963 34047 ft 438 kts 307°
2026-05-03 20:43 23.77090 -75.90898 34057 ft 438 kts 307°
2026-05-03 20:44 23.80493 -75.95002 34054 ft 438 kts 307°
2026-05-03 20:44 23.84581 -75.99934 34051 ft 438 kts 307°
2026-05-03 20:45 23.88667 -76.04878 34053 ft 438 kts 307°
2026-05-03 20:45 23.92748 -76.09830 34049 ft 438 kts 307°
2026-05-03 20:46 23.96831 -76.14781 34052 ft 438 kts 307°
2026-05-03 20:46 24.00912 -76.19723 34054 ft 437 kts 307°
2026-05-03 20:47 24.04981 -76.24660 34047 ft 436 kts 307°
2026-05-03 20:47 24.09042 -76.29594 34046 ft 436 kts 307°
2026-05-03 20:48 24.13095 -76.34521 34042 ft 436 kts 307°
2026-05-03 20:48 24.17153 -76.39451 34047 ft 436 kts 307°
2026-05-03 20:49 24.21202 -76.44388 34050 ft 435 kts 307°
2026-05-03 20:49 24.25251 -76.49325 34049 ft 435 kts 307°
2026-05-03 20:50 24.29298 -76.54261 34055 ft 435 kts 307°
2026-05-03 20:50 24.33336 -76.59199 34052 ft 435 kts 307°
2026-05-03 20:51 24.37361 -76.64134 34048 ft 434 kts 307°
2026-05-03 20:51 24.41389 -76.69073 34053 ft 434 kts 307°
2026-05-03 20:52 24.45391 -76.73983 34059 ft 435 kts 306°
2026-05-03 20:52 24.49439 -76.78926 34053 ft 435 kts 307°
2026-05-03 20:53 24.53477 -76.83881 34049 ft 435 kts 306°
2026-05-03 20:53 24.57506 -76.88846 34061 ft 435 kts 306°
2026-05-03 20:54 24.61519 -76.93803 34054 ft 434 kts 306°
2026-05-03 20:54 24.67537 -77.01232 34054 ft 433 kts 306°
2026-05-03 20:55 24.71549 -77.06182 34055 ft 433 kts 306°
2026-05-03 20:55 24.75556 -77.11130 34053 ft 433 kts 306°
2026-05-03 20:56 24.79562 -77.16078 34066 ft 433 kts 306°
2026-05-03 20:56 24.83558 -77.21022 34062 ft 432 kts 306°
2026-05-03 20:57 24.87545 -77.25974 34066 ft 432 kts 306°
2026-05-03 20:57 24.91528 -77.30923 34065 ft 431 kts 306°
2026-05-03 20:58 24.95508 -77.35857 34070 ft 431 kts 306°
2026-05-03 20:58 24.99472 -77.40782 34072 ft 432 kts 306°
2026-05-03 20:59 25.03017 -77.46006 34057 ft 420 kts 292°
2026-05-03 20:59 25.05281 -77.51896 34054 ft 417 kts 288°
2026-05-03 21:00 25.07135 -77.56853 34054 ft 418 kts 288°
2026-05-03 21:00 25.09710 -77.63744 34062 ft 418 kts 288°
2026-05-03 21:01 25.10815 -77.66708 34063 ft 418 kts 288°
2026-05-03 21:02 25.16390 -77.81639 34062 ft 417 kts 288°
2026-05-03 21:02 25.18593 -77.87564 33954 ft 418 kts 288°
2026-05-03 21:03 25.19694 -77.90523 33619 ft 416 kts 288°
2026-05-03 21:03 25.20783 -77.93445 33347 ft 404 kts 288°
2026-05-03 21:03 25.21838 -77.96269 33095 ft 394 kts 287°
2026-05-03 21:03 25.22871 -77.99054 32843 ft 391 kts 287°
2026-05-03 21:04 25.23897 -78.01831 32597 ft 389 kts 287°
2026-05-03 21:04 25.24913 -78.04592 32633 ft 392 kts 287°
2026-05-03 21:04 25.27005 -78.10289 32585 ft 407 kts 287°
2026-05-03 21:05 25.29175 -78.16175 32629 ft 419 kts 287°
2026-05-03 21:05 25.31436 -78.22156 32533 ft 424 kts 289°
2026-05-03 21:06 25.32635 -78.25156 31727 ft 429 kts 289°
2026-05-03 21:06 25.33853 -78.28132 31445 ft 420 kts 289°
2026-05-03 21:06 25.35052 -78.31043 31116 ft 412 kts 289°
2026-05-03 21:06 25.36225 -78.33908 30559 ft 406 kts 288°
2026-05-03 21:07 25.37372 -78.36746 29894 ft 402 kts 288°
2026-05-03 21:07 25.38499 -78.39562 29151 ft 399 kts 288°
2026-05-03 21:07 25.39610 -78.42357 28433 ft 395 kts 288°
2026-05-03 21:07 25.40694 -78.45085 27759 ft 391 kts 288°
2026-05-03 21:08 25.41777 -78.47823 27314 ft 381 kts 288°
2026-05-03 21:08 25.42820 -78.50502 26941 ft 369 kts 288°
2026-05-03 21:08 25.43804 -78.53062 26348 ft 364 kts 288°
2026-05-03 21:08 25.44779 -78.55624 25733 ft 360 kts 288°
2026-05-03 21:09 25.45744 -78.58163 25121 ft 356 kts 288°
2026-05-03 21:09 25.46698 -78.60673 24680 ft 351 kts 288°
2026-05-03 21:09 25.47640 -78.63143 24252 ft 347 kts 288°
2026-05-03 21:09 25.48578 -78.65599 23809 ft 346 kts 288°
2026-05-03 21:10 25.49514 -78.68054 23357 ft 346 kts 288°
2026-05-03 21:10 25.50447 -78.70499 22887 ft 344 kts 289°
2026-05-03 21:10 25.51375 -78.72927 22446 ft 341 kts 289°
2026-05-03 21:10 25.52294 -78.75332 22002 ft 339 kts 288°
2026-05-03 21:11 25.53210 -78.77727 21567 ft 337 kts 288°
2026-05-03 21:11 25.54121 -78.80108 21132 ft 335 kts 289°
2026-05-03 21:11 25.55023 -78.82470 20687 ft 333 kts 289°
2026-05-03 21:11 25.55924 -78.84827 20262 ft 331 kts 289°
2026-05-03 21:12 25.56819 -78.87173 19825 ft 330 kts 289°
2026-05-03 21:12 25.57709 -78.89508 19387 ft 328 kts 289°
2026-05-03 21:12 25.58594 -78.91837 18963 ft 327 kts 289°
2026-05-03 21:12 25.59475 -78.94153 18515 ft 327 kts 289°
2026-05-03 21:13 25.60357 -78.96469 18067 ft 326 kts 289°
2026-05-03 21:13 25.61236 -78.98781 17607 ft 324 kts 289°
2026-05-03 21:13 25.62105 -79.01075 17174 ft 322 kts 289°
2026-05-03 21:13 25.62970 -79.03360 16744 ft 320 kts 289°
2026-05-03 21:14 25.63826 -79.05619 16328 ft 318 kts 289°
2026-05-03 21:14 25.64676 -79.07877 15908 ft 316 kts 289°
2026-05-03 21:14 25.65518 -79.10117 15501 ft 314 kts 289°
2026-05-03 21:14 25.66355 -79.12341 15091 ft 312 kts 289°
2026-05-03 21:15 25.67187 -79.14560 14671 ft 311 kts 289°
2026-05-03 21:15 25.68016 -79.16773 14280 ft 310 kts 289°
2026-05-03 21:15 25.68840 -79.18976 13898 ft 309 kts 290°
2026-05-03 21:15 25.69664 -79.21170 13438 ft 308 kts 290°
2026-05-03 21:16 25.70481 -79.23348 13044 ft 305 kts 290°
2026-05-03 21:16 25.71291 -79.25516 12646 ft 303 kts 290°
2026-05-03 21:16 25.72094 -79.27669 12263 ft 301 kts 290°
2026-05-03 21:16 25.72890 -79.29806 11874 ft 299 kts 290°
2026-05-03 21:17 25.73675 -79.31927 11503 ft 297 kts 290°
2026-05-03 21:17 25.74191 -79.33329 11247 ft 295 kts 290°
2026-05-03 21:17 25.75221 -79.36140 10747 ft 293 kts 290°
2026-05-03 21:17 25.75987 -79.38229 10366 ft 292 kts 290°
2026-05-03 21:18 25.76757 -79.40304 10003 ft 290 kts 290°
2026-05-03 21:18 25.77524 -79.42366 9597 ft 288 kts 290°
2026-05-03 21:18 25.78287 -79.44418 9200 ft 287 kts 290°
2026-05-03 21:18 25.79038 -79.46458 8876 ft 282 kts 290°
2026-05-03 21:19 25.79763 -79.48441 8756 ft 274 kts 289°
2026-05-03 21:19 25.80473 -79.50394 8615 ft 272 kts 289°
2026-05-03 21:19 25.81178 -79.52344 8319 ft 271 kts 289°
2026-05-03 21:19 25.81877 -79.54280 7959 ft 270 kts 289°
2026-05-03 21:20 25.82577 -79.56218 7594 ft 270 kts 289°
2026-05-03 21:20 25.83274 -79.58150 7231 ft 270 kts 289°
2026-05-03 21:20 25.83974 -79.60087 6857 ft 270 kts 289°
2026-05-03 21:20 25.84684 -79.62016 6497 ft 270 kts 290°
2026-05-03 21:21 25.85411 -79.63937 6106 ft 269 kts 291°
2026-05-03 21:21 25.86159 -79.65819 5990 ft 265 kts 292°
2026-05-03 21:21 25.86954 -79.67679 5997 ft 267 kts 293°
2026-05-03 21:21 25.87761 -79.69526 5993 ft 261 kts 294°
2026-05-03 21:22 25.88533 -79.71280 5993 ft 245 kts 293°
2026-05-03 21:22 25.89246 -79.72903 5988 ft 230 kts 293°
2026-05-03 21:22 25.89929 -79.74469 5999 ft 222 kts 293°
2026-05-03 21:22 25.90592 -79.76012 5999 ft 221 kts 292°
2026-05-03 21:23 25.91249 -79.77551 5997 ft 220 kts 292°
2026-05-03 21:23 25.91905 -79.79089 5998 ft 220 kts 292°
2026-05-03 21:23 25.92560 -79.80626 6000 ft 220 kts 292°
2026-05-03 21:23 25.93214 -79.82161 5998 ft 220 kts 292°
2026-05-03 21:24 25.93866 -79.83694 5998 ft 219 kts 292°
2026-05-03 21:24 25.94517 -79.85225 5998 ft 219 kts 292°
2026-05-03 21:24 25.95168 -79.86758 5999 ft 219 kts 292°
2026-05-03 21:24 25.95820 -79.88294 5997 ft 220 kts 292°
2026-05-03 21:25 25.96473 -79.89830 5997 ft 220 kts 292°
2026-05-03 21:25 25.97125 -79.91369 5998 ft 220 kts 292°
2026-05-03 21:25 25.97777 -79.92910 5999 ft 220 kts 292°
2026-05-03 21:25 25.98432 -79.94448 6003 ft 221 kts 294°
2026-05-03 21:26 25.98954 -79.95416 5999 ft 221 kts 303°
2026-05-03 21:26 25.99963 -79.96724 6003 ft 224 kts 308°
2026-05-03 21:26 26.01007 -79.98004 6001 ft 224 kts 308°
2026-05-03 21:26 26.02050 -79.99288 6007 ft 224 kts 308°
2026-05-03 21:27 26.03091 -80.00573 6005 ft 223 kts 308°
2026-05-03 21:27 26.04131 -80.01855 6008 ft 223 kts 308°
2026-05-03 21:27 26.05172 -80.03139 6009 ft 223 kts 308°
2026-05-03 21:27 26.06210 -80.04420 6010 ft 223 kts 308°
2026-05-03 21:28 26.07248 -80.05701 6006 ft 223 kts 308°
2026-05-03 21:28 26.08283 -80.06981 6011 ft 223 kts 308°
2026-05-03 21:28 26.09320 -80.08264 6014 ft 223 kts 308°
2026-05-03 21:28 26.10352 -80.09536 6007 ft 221 kts 307°
2026-05-03 21:29 26.11386 -80.10815 5845 ft 223 kts 308°
2026-05-03 21:29 26.12418 -80.12096 5659 ft 222 kts 308°
2026-05-03 21:29 26.13451 -80.13376 5493 ft 222 kts 308°
2026-05-03 21:29 26.14329 -80.14767 5360 ft 218 kts 294°
2026-05-03 21:30 26.14861 -80.16332 5116 ft 216 kts 281°
2026-05-03 21:30 26.15031 -80.17979 5009 ft 216 kts 268°
2026-05-03 21:30 26.15027 -80.19652 4958 ft 216 kts 269°
2026-05-03 21:30 26.15037 -80.21323 4711 ft 218 kts 269°
2026-05-03 21:31 26.15045 -80.23011 4526 ft 217 kts 271°
2026-05-03 21:31 26.15055 -80.24686 4284 ft 216 kts 269°
2026-05-03 21:31 26.15069 -80.26335 3975 ft 215 kts 269°
2026-05-03 21:31 26.15092 -80.28001 3626 ft 215 kts 270°
2026-05-03 21:32 26.15105 -80.29681 3307 ft 216 kts 269°
2026-05-03 21:32 26.15103 -80.31333 2996 ft 216 kts 270°
2026-05-03 21:32 26.15088 -80.33015 2740 ft 219 kts 267°
2026-05-03 21:32 26.14659 -80.34628 2620 ft 221 kts 237°
2026-05-03 21:33 26.13478 -80.35719 2454 ft 222 kts 203°
2026-05-03 21:33 26.11977 -80.35983 2164 ft 220 kts 181°
2026-05-03 21:33 26.10450 -80.35919 1827 ft 219 kts 171°
2026-05-03 21:33 26.09083 -80.35210 1814 ft 221 kts 138°
2026-05-03 21:34 26.08141 -80.33867 1806 ft 221 kts 114°
2026-05-03 21:34 26.07769 -80.32227 1807 ft 218 kts 90°
2026-05-03 21:34 26.07759 -80.30547 1805 ft 216 kts 89°
2026-05-03 21:34 26.07755 -80.28876 1808 ft 216 kts 89°
2026-05-03 21:35 26.07749 -80.27205 1780 ft 217 kts 90°
2026-05-03 21:35 26.07740 -80.25584 1581 ft 198 kts 89°
2026-05-03 21:35 26.07732 -80.24152 1385 ft 172 kts 88°
2026-05-03 21:35 26.07726 -80.22884 1149 ft 157 kts 88°
2026-05-03 21:36 26.07720 -80.21698 945 ft 150 kts 89°
2026-05-03 21:36 26.07714 -80.20546 753 ft 148 kts 89°
2026-05-03 21:36 26.07709 -80.19406 541 ft 148 kts 89°
2026-05-03 21:36 26.07706 -80.18282 378 ft 143 kts 85°
2026-05-03 21:37 26.07702 -80.17154 177 ft 147 kts 86°
2026-05-03 21:37 26.07697 -80.16025 39 ft 141 kts 89°
2026-05-03 21:37 26.07686 -80.15067 17 ft 95 kts 91°
2026-05-03 21:37 26.07684 -80.14660 24 ft 22 kts 92°
2026-05-03 21:38 26.07662 -80.14480 30 ft 24 kts 111°
2026-05-03 21:38 26.07591 -80.14337 26 ft 20 kts 122°
2026-05-03 21:38 26.07574 -80.14308 31 ft 2 kts 124°
2026-05-03 21:38 26.07565 -80.14294 29 ft 1 kts 122°
2026-05-03 21:39 26.07565 -80.14293 29 ft 0 kts 122°
2026-05-03 21:39 26.07562 -80.14286 29 ft 2 kts 117°
2026-05-03 21:40 26.07557 -80.14274 26 ft 2 kts 112°
2026-05-03 21:40 26.07557 -80.14272 26 ft 0 kts 113°
2026-05-03 21:42 26.07555 -80.14267 26 ft 2 kts 115°
2026-05-03 21:42 26.07548 -80.14255 25 ft 2 kts 124°
2026-05-03 21:42 26.07542 -80.14249 24 ft 2 kts 134°
2026-05-03 21:43 26.07524 -80.14237 24 ft 1 kts 156°
2026-05-03 21:43 26.07522 -80.14236 24 ft 0 kts 159°
2026-05-03 21:43 26.07519 -80.14234 24 ft 2 kts 152°
2026-05-03 21:43 26.07497 -80.14217 24 ft 5 kts 146°
2026-05-03 21:44 26.07470 -80.14192 24 ft 5 kts 130°
2026-05-03 21:44 26.07448 -80.14152 24 ft 7 kts 126°
2026-05-03 21:44 26.07423 -80.14129 24 ft 0 kts 142°
2026-05-03 21:44 26.07417 -80.14124 24 ft 2 kts 142°
2026-05-03 21:45 26.07413 -80.14120 24 ft 0 kts 142°